TimeEST,TemperatureF,Dew PointF,Humidity,Sea Level PressureIn,VisibilityMPH,Wind Direction,Wind SpeedMPH,Gust SpeedMPH,PrecipitationIn,Events,Conditions,WindDirDegrees,DateUTC
12:03 AM,33.4,25.5,73,30.57,10.0,NNE,4.6,-,N/A,,Clear,20,2013-12-08 05:03:00
12:23 AM,32.9,25.5,74,30.57,10.0,Calm,Calm,-,N/A,,Clear,0,2013-12-08 05:23:00
12:43 AM,32.9,25.5,74,30.57,10.0,North,3.5,-,N/A,,Clear,10,2013-12-08 05:43:00
1:03 AM,32.9,25.3,74,30.56,10.0,Calm,Calm,-,N/A,,Clear,0,2013-12-08 06:03:00
1:23 AM,32.5,25.2,74,30.57,10.0,NNE,3.5,-,N/A,,Clear,20,2013-12-08 06:23:00
1:43 AM,32.0,24.8,75,30.57,10.0,North,3.5,-,N/A,,Clear,10,2013-12-08 06:43:00
2:03 AM,32.0,24.4,74,30.57,10.0,North,4.6,-,N/A,,Clear,10,2013-12-08 07:03:00
2:23 AM,32.0,24.3,73,30.58,10.0,NNE,3.5,-,N/A,,Clear,20,2013-12-08 07:23:00
2:43 AM,31.6,24.3,74,30.58,10.0,North,4.6,-,N/A,,Clear,10,2013-12-08 07:43:00
3:03 AM,32.0,24.1,73,30.58,10.0,NNE,4.6,-,N/A,,Clear,20,2013-12-08 08:03:00
3:23 AM,31.6,24.4,75,30.57,10.0,NNE,3.5,-,N/A,,Clear,20,2013-12-08 08:23:00
3:43 AM,31.6,24.6,75,30.57,10.0,NNE,4.6,-,N/A,,Clear,20,2013-12-08 08:43:00
4:04 AM,32.0,24.8,75,30.57,10.0,NNE,4.6,-,N/A,,Clear,30,2013-12-08 09:04:00
4:24 AM,32.0,25.5,77,30.57,10.0,NNE,6.9,-,N/A,,Clear,30,2013-12-08 09:24:00
4:44 AM,32.2,25.5,76,30.57,10.0,NE,9.2,-,N/A,,Clear,40,2013-12-08 09:44:00
5:04 AM,32.4,25.5,76,30.56,10.0,NE,8.1,-,N/A,,Clear,50,2013-12-08 10:04:00
5:21 AM,32.4,25.7,76,30.57,10.0,NE,9.2,-,N/A,,Clear,50,2013-12-08 10:21:00
5:53 AM,32.0,26.6,80,30.58,10.0,NE,10.4,-,N/A,,Clear,50,2013-12-08 10:53:00
6:50 AM,32.0,24.8,75,30.60,10.0,NE,10.4,-,N/A,,Scattered Clouds,50,2013-12-08 11:50:00
7:53 AM,32.0,24.8,75,30.60,10.0,ENE,6.9,-,N/A,,Mostly Cloudy,60,2013-12-08 12:53:00
8:50 AM,32.0,24.8,75,30.60,10.0,NE,4.6,-,N/A,,Overcast,50,2013-12-08 13:50:00
9:45 AM,32.0,24.8,75,30.60,10.0,ENE,5.8,-,N/A,,Overcast,70,2013-12-08 14:45:00
10:50 AM,32.0,23.0,69,30.60,10.0,NE,8.1,-,N/A,,Overcast,40,2013-12-08 15:50:00
11:50 AM,32.0,24.8,75,30.55,4.0,ENE,8.1,-,N/A,,Overcast,70,2013-12-08 16:50:00
12:50 PM,30.2,26.6,86,-9999,-9999.0,NNW,4.6,-,N/A,Snow,Light Snow,340,2013-12-08 17:50:00
2:50 PM,30.2,30.2,100,-9999,-9999.0,ENE,4.6,-,N/A,Snow,Light Snow,70,2013-12-08 19:50:00
4:50 PM,32.0,32.0,100,-9999,-9999.0,NE,9.2,-,N/A,,Overcast,50,2013-12-08 21:50:00
5:50 PM,32.0,32.0,100,-9999,-9999.0,NE,5.8,-,N/A,,Overcast,50,2013-12-08 22:50:00
5:53 PM,32.0,32.0,100,-9999,4.0,NE,5.8,-,N/A,,Overcast,50,2013-12-08 22:53:00
6:53 PM,32.0,32.0,100,-9999,4.0,ENE,6.9,-,N/A,,Light Freezing Drizzle,60,2013-12-08 23:53:00
7:50 PM,32.0,32.0,100,-9999,7.0,NE,6.9,-,N/A,,Overcast,50,2013-12-09 00:50:00
8:53 PM,33.8,33.8,100,-9999,4.0,ENE,6.9,-,N/A,,Overcast,70,2013-12-09 01:53:00
9:46 PM,34.0,34.0,100,30.37,2.5,NNE,3.5,-,N/A,,Overcast,30,2013-12-09 02:46:00
10:06 PM,34.0,34.0,100,30.36,2.5,Calm,Calm,-,N/A,,Overcast,0,2013-12-09 03:06:00
10:26 PM,34.0,34.0,100,30.35,3.0,Calm,Calm,-,N/A,,Overcast,0,2013-12-09 03:26:00
10:46 PM,34.0,34.0,100,30.37,2.0,Calm,Calm,-,0.04,,Overcast,0,2013-12-09 03:46:00
11:06 PM,34.0,34.0,100,30.34,2.5,Calm,Calm,-,0.02,,Overcast,0,2013-12-09 04:06:00
11:26 PM,34.0,34.0,100,30.33,3.0,Calm,Calm,-,0.05,,Overcast,0,2013-12-09 04:26:00
11:46 PM,34.0,34.0,100,30.32,4.0,Calm,Calm,-,0.08,,Overcast,0,2013-12-09 04:46:00